Powrót do katalogu

DIZHI-1

AktywnyNaukaSSO
NORAD 64048·PAYLOAD·🇨🇳 China
Ta nazwa satelity nie została jeszcze potwierdzona przez oficjalne źródła.

Wystrzelony May 17, 2025 z Jiuquan Satellite Launch Center

Loading…

Następne Przeloty (najbliższe 24 godziny)

TLE

ŚwieżeSource: Space-Track

Epoka: Sep 14, 2026, 14:56 UTC

1 64048U 25103A   26257.62278418  .00001540  00000-0  76464-4 0  9994
2 64048  97.4111 328.4992 0001537  89.4641 270.6770 15.19171754 73653

Śledź DIZHI-1 w czasie rzeczywistym z AllMySat

Download on the App Store